SV4RJA-13 Weather Reports


time (UTC)temp
C
wind
direction
speed
KPH
gust
KPH
rain 1hr
cm
rain 24hr
cm
rain mn
cm
humidity
%
barometer
mb
20260504045911 9 0.0 0.0 0.00 0.00 0.00 10 1021.2
20260504043912 8 0.0 0.0 0.00 0.00 0.00 10 1021.0
20260504042913 8 0.0 0.0 0.00 0.00 0.00 10 1020.9
20260504041912 8 0.0 0.0 0.00 0.00 0.00 10 1020.8
20260504040913 7 0.0 0.0 0.00 0.00 0.00 10 1020.8
20260504035912 8 0.0 0.0 0.00 0.00 0.00 10 1020.7
20260504034912 8 0.0 0.0 0.00 0.00 0.00 10 1020.5
20260504033912 7 0.0 0.0 0.00 0.00 0.00 10 1020.5
20260504032912 7 0.0 0.0 0.00 0.00 0.00 10 1020.4
20260504025912 7 0.0 0.0 0.00 0.00 0.00 10 1020.2
20260504024912 7 0.0 0.0 0.00 0.00 0.00 10 1020.2
20260504023912 7 0.0 0.0 0.00 0.00 0.00 10 1020.3
20260504022912 7 0.0 0.0 0.00 0.00 0.00 10 1020.2
20260504021912 7 0.0 0.0 0.00 0.00 0.00 10 1020.2
20260504020913 7 0.0 0.0 0.00 0.00 0.00 10 1020.2
20260504015912 7 0.0 0.0 0.00 0.00 0.00 10 1020.2
20260504014913 7 0.0 0.0 0.00 0.00 0.00 10 1020.3
20260504013911 7 0.0 0.0 0.00 0.00 0.00 10 1020.3
20260504011913 6 0.0 0.0 0.00 0.00 0.00 10 1020.3
20260504010912 6 0.0 0.0 0.00 0.00 0.00 10 1020.3
20260504005913 6 0.0 0.0 0.00 0.00 0.00 10 1020.1
20260504004913 7 0.0 0.0 0.00 0.00 0.00 10 1020.1
20260504003912 6 0.0 0.0 0.00 0.00 0.00 10 1020.2
20260504002912 6 0.0 0.0 0.00 0.00 0.00 10 1020.2
20260504001911 7 0.0 0.0 0.00 0.00 0.00 10 1020.3
20260503235912 8 0.0 0.0 0.00 0.00 0.00 10 1020.2
20260503234913 7 0.0 0.0 0.00 0.00 0.00 10 1020.1
20260503233912 7 0.0 0.0 0.00 0.00 0.00 10 1020.2
20260503231913 7 0.0 0.0 0.00 0.00 0.00 10 1020.3
20260503230913 7 0.0 0.0 0.00 0.00 0.00 10 1020.3
20260503225911 7 0.0 0.0 0.00 0.00 0.00 10 1020.4
20260503223912 8 0.0 0.0 0.00 0.00 0.00 10 1020.4
20260503222912 8 0.0 0.0 0.00 0.00 0.00 10 1020.2
20260503221913 8 0.0 0.0 0.00 0.00 0.00 10 1020.3
20260503220912 8 0.0 0.0 0.00 0.00 0.00 10 1020.3
20260503215913 8 0.0 0.0 0.00 0.00 0.00 10 1020.4
20260503214912 8 0.0 0.0 0.00 0.00 0.00 10 1020.3
20260503213911 8 0.0 0.0 0.00 0.00 0.00 10 1020.4
20260503211913 8 0.0 0.0 0.00 0.00 0.00 10 1020.5
20260503210912 8 0.0 0.0 0.00 0.00 0.00 10 1020.5
20260503204912 8 0.0 0.0 0.00 0.00 0.00 10 1020.5
20260503203913 8 0.0 0.0 0.00 0.00 0.00 10 1020.5
20260503202913 9 0.0 0.0 0.00 0.00 0.00 10 1020.4
20260503201912 9 0.0 0.0 0.00 0.00 0.00 10 1020.6
20260503195913 9 0.0 0.0 0.00 0.00 0.00 10 1020.7
20260503194912 10 0.0 0.0 0.00 0.00 0.00 10 1020.7
20260503193913 9 0.0 0.0 0.00 0.00 0.00 10 1020.7
20260503192912 10 0.0 0.0 0.00 0.00 0.00 10 1020.8
20260503191911 10 0.0 0.0 0.00 0.00 0.00 10 1020.8
20260503190912 10 0.0 0.0 0.00 0.00 0.00 97 1020.8
20260503185912 10 0.0 0.0 0.00 0.00 0.00 89 1020.7
20260503184911 12 0.0 0.0 0.00 0.00 0.00 75 1020.2
20260503183912 11 0.0 0.0 0.00 0.00 0.00 72 1020.5
20260503182911 12 0.0 0.0 0.00 0.00 0.00 72 1020.4
20260503180913 13 0.0 0.0 0.00 0.00 0.00 62 1020.2
20260503175913 13 0.0 0.0 0.00 0.00 0.00 68 1020.2
20260503174912 13 0.0 0.0 0.00 0.00 0.00 62 1020.1
20260503173912 13 0.0 0.0 0.00 0.00 0.00 59 1019.9
20260503171912 14 0.0 0.0 0.00 0.00 0.00 59 1019.5
20260503170912 14 0.0 0.0 0.00 0.00 0.00 57 1019.3
20260503150913 16 0.0 0.0 0.00 0.00 0.00 42 1019.4
20260503130913 16 0.0 0.0 0.00 0.00 0.00 45 1019.5
20260503072913 7 0.0 0.0 0.00 0.00 0.00 10 1020.8
20260503071913 7 0.0 0.0 0.00 0.00 0.00 10 1020.7
20260503070913 7 0.0 0.0 0.00 0.00 0.00 10 1020.7
20260503054912 10 0.0 0.0 0.00 0.00 0.00 10 1019.1
20260503053913 10 0.0 0.0 0.00 0.00 0.00 10 1019.0
20260503052912 10 0.0 0.0 0.00 0.00 0.00 10 1018.9
20260503051912 10 0.0 0.0 0.00 0.00 0.00 10 1018.8